{"data":{"norad_id":65585,"epoch":"2026-05-25T03:04:59.698272Z","epoch_age_seconds":63632,"freshness":"FRESH","line1":"1 65585U 25203W   26145.12846873  .00000141  00000+0  11746-3 0  9995","line2":"2 65585  81.3059  32.3384 0004536 268.6636  91.4001 13.83270219 35497","mean_motion":13.83270219,"eccentricity":0.0004536,"inclination_deg":81.3059,"raan_deg":32.3384,"arg_perigee_deg":268.6636,"mean_anomaly_deg":91.4001,"bstar":0.00011746,"rev_number":3549,"period_min":104.10113513765,"perigee_km":948.98544810238,"apogee_km":955.63563010985,"semimajor_km":7330.4475391061,"source":"CELESTRAK","updated_at":"2026-05-25T13:38:25.172749Z"}}